• In Russia
  • List of Countries
  • For 7 days
  • Water Temperature
  • Satellite Maps
  • Weather Map
  • Weather Widgets
  • user-avatar
    Login

    Hourly Weather Lezhe

    Today, 21 January, Saturday

    Time Temperature Precipitation Wind Pressure Humidity
    00:00 -2°C° 0 mm 3 mps 747 mmHg 87%
    01:00 -4°C° 0 mm 3 mps 747 mmHg 87%
    02:00 -4°C° 0 mm 3 mps 747 mmHg 87%
    03:00 -4°C° 0 mm 3 mps 747 mmHg 87%
    04:00 -4°C° 0 mm 3 mps 747 mmHg 87%
    05:00 -4°C° 0 mm 3 mps 747 mmHg 86%
    06:00 -4°C° 0 mm 3 mps 747 mmHg 86%
    07:00 -4°C° 0 mm 3 mps 747 mmHg 86%
    08:00 +1°C° 0 mm 2 mps 747 mmHg 84%
    09:00 +3°C° 0 mm 2 mps 747 mmHg 82%
    10:00 +5°C° 0 mm 2 mps 747 mmHg 80%
    11:00 +6°C° 0 mm 2 mps 747 mmHg 79%
    12:00 +7°C° 0 mm 2 mps 746 mmHg 78%
    13:00 +8°C° 0 mm 1 mps 746 mmHg 78%
    14:00 +7°C° 0 mm 2 mps 746 mmHg 81%
    15:00 +6°C° 0 mm 2 mps 746 mmHg 84%
    16:00 +5°C° 0 mm 2 mps 745 mmHg 87%
    17:00 +3°C° 0 mm 2 mps 746 mmHg 88%
    18:00 +2°C° 0 mm 2 mps 746 mmHg 89%
    19:00 0°C° 0 mm 3 mps 746 mmHg 90%
    20:00 -1°C° 0 mm 3 mps 746 mmHg 89%
    21:00 -1°C° 0 mm 3 mps 746 mmHg 88%
    22:00 -1°C° 0 mm 3 mps 746 mmHg 87%
    23:00 -1°C° 0 mm 3 mps 746 mmHg 86%

    Tomorrow, 22 January, Sunday

    Time Temperature Precipitation Wind Pressure Humidity
    00:00 -1°C° 0 mm 3 mps 746 mmHg 86%
    01:00 -2°C° 0 mm 3 mps 746 mmHg 85%
    02:00 -2°C° 0 mm 3 mps 746 mmHg 85%
    03:00 -2°C° 0 mm 3 mps 746 mmHg 84%
    04:00 -2°C° 0 mm 3 mps 746 mmHg 84%
    05:00 -2°C° 0 mm 3 mps 746 mmHg 83%
    06:00 -2°C° 0 mm 3 mps 746 mmHg 82%
    07:00 -2°C° 0 mm 3 mps 746 mmHg 82%
    08:00 0°C° 0 mm 3 mps 746 mmHg 80%
    09:00 +2°C° 0 mm 3 mps 746 mmHg 78%
    10:00 +4°C° 0 mm 3 mps 746 mmHg 76%
    11:00 +6°C° 0 mm 2 mps 746 mmHg 76%
    12:00 +6°C° 0 mm 2 mps 746 mmHg 77%
    13:00 +7°C° 0 mm 2 mps 745 mmHg 77%
    14:00 +6°C° 0 mm 2 mps 745 mmHg 80%
    15:00 +6°C° 0 mm 2 mps 745 mmHg 82%
    16:00 +5°C° 0 mm 2 mps 745 mmHg 84%
    17:00 +4°C° 0 mm 2 mps 745 mmHg 85%
    18:00 +2°C° 0 mm 3 mps 745 mmHg 86%
    19:00 +1°C° 0 mm 3 mps 745 mmHg 86%
    20:00 +1°C° 0 mm 3 mps 745 mmHg 86%
    21:00 0°C° 0 mm 3 mps 745 mmHg 85%
    22:00 0°C° 0 mm 3 mps 745 mmHg 84%
    23:00 0°C° 0 mm 3 mps 745 mmHg 84%

    Day after tomorrow, 23 January, Monday

    Time Temperature Precipitation Wind Pressure Humidity
    00:00 0°C° 0 mm 3 mps 745 mmHg 84%
    01:00 0°C° 0 mm 3 mps 745 mmHg 84%
    02:00 0°C° 0 mm 3 mps 744 mmHg 84%
    03:00 +1°C° 0 mm 3 mps 744 mmHg 84%
    04:00 +1°C° 0 mm 3 mps 744 mmHg 84%
    05:00 +1°C° 0 mm 3 mps 744 mmHg 84%
    06:00 +1°C° 0 mm 3 mps 743 mmHg 83%
    07:00 0°C° 0 mm 3 mps 743 mmHg 83%
    08:00 +2°C° 0 mm 3 mps 743 mmHg 82%
    09:00 +4°C° 0 mm 3 mps 743 mmHg 80%
    10:00 +6°C° 0 mm 2 mps 743 mmHg 78%
    11:00 +7°C° 0 mm 2 mps 742 mmHg 79%
    12:00 +8°C° 0 mm 2 mps 742 mmHg 79%
    13:00 +8°C° 0 mm 2 mps 741 mmHg 79%
    14:00 +8°C° 0 mm 2 mps 741 mmHg 82%
    15:00 +7°C° 0 mm 2 mps 741 mmHg 84%
    16:00 +6°C° 0 mm 2 mps 740 mmHg 87%
    17:00 +5°C° 0 mm 2 mps 740 mmHg 87%
    18:00 +4°C° 0 mm 3 mps 740 mmHg 87%
    19:00 +3°C° 0 mm 3 mps 739 mmHg 87%
    20:00 +3°C° 0.1 mm 3 mps 739 mmHg 87%
    21:00 +3°C° 0.1 mm 3 mps 740 mmHg 86%
    22:00 +3°C° 0.1 mm 3 mps 740 mmHg 86%
    23:00 +3°C° 0.1 mm 3 mps 739 mmHg 86%

    24 January, Tuesday

    Time Temperature Precipitation Wind Pressure Humidity
    00:00 +3°C° 0.1 mm 3 mps 739 mmHg 86%
    01:00 +3°C° 0.1 mm 3 mps 738 mmHg 86%
    02:00 +3°C° 0.2 mm 3 mps 738 mmHg 87%
    03:00 +3°C° 0.2 mm 3 mps 737 mmHg 87%
    04:00 +3°C° 0.2 mm 3 mps 737 mmHg 88%
    05:00 +3°C° 0.2 mm 3 mps 737 mmHg 88%
    06:00 +3°C° 0.2 mm 3 mps 736 mmHg 88%
    07:00 +4°C° 0.2 mm 2 mps 736 mmHg 88%
    08:00 +5°C° 0.2 mm 2 mps 736 mmHg 87%
    09:00 +5°C° 0.2 mm 2 mps 737 mmHg 86%
    10:00 +6°C° 0.2 mm 2 mps 737 mmHg 85%
    11:00 +6°C° 0.3 mm 2 mps 736 mmHg 85%
    12:00 +6°C° 0.3 mm 2 mps 736 mmHg 85%
    13:00 +7°C° 0.3 mm 2 mps 736 mmHg 85%
    14:00 +6°C° 0.4 mm 2 mps 736 mmHg 86%
    15:00 +6°C° 0.4 mm 2 mps 736 mmHg 87%
    16:00 +5°C° 0.4 mm 2 mps 736 mmHg 88%
    17:00 +5°C° 0.4 mm 2 mps 736 mmHg 89%
    18:00 +5°C° 0.4 mm 2 mps 737 mmHg 90%
    19:00 +3°C° 0.4 mm 3 mps 737 mmHg 90%
    20:00 +3°C° 0.5 mm 3 mps 737 mmHg 90%
    21:00 +3°C° 0.5 mm 3 mps 738 mmHg 90%
    22:00 +2°C° 0.5 mm 3 mps 738 mmHg 90%
    23:00 +1°C° 0.4 mm 4 mps 738 mmHg 90%

    25 January, Wednesday

    Time Temperature Precipitation Wind Pressure Humidity
    00:00 +1°C° 0.4 mm 4 mps 738 mmHg 90%
    01:00 +1°C° 0.4 mm 4 mps 738 mmHg 89%
    02:00 0°C° 0.3 mm 4 mps 738 mmHg 89%
    03:00 0°C° 0.3 mm 4 mps 738 mmHg 89%
    04:00 0°C° 0.3 mm 4 mps 738 mmHg 89%
    05:00 0°C° 0.1 mm 4 mps 739 mmHg 89%
    06:00 0°C° 0.1 mm 4 mps 739 mmHg 88%
    07:00 0°C° 0.1 mm 4 mps 739 mmHg 88%
    08:00 0°C° 0.1 mm 4 mps 740 mmHg 87%
    09:00 +1°C° 0.1 mm 5 mps 740 mmHg 86%
    10:00 +1°C° 0.1 mm 5 mps 740 mmHg 86%
    11:00 +2°C° 0.1 mm 5 mps 740 mmHg 85%
    12:00 +3°C° 0.1 mm 4 mps 740 mmHg 85%
    13:00 +3°C° 0.1 mm 4 mps 740 mmHg 84%
    14:00 +3°C° 0 mm 4 mps 740 mmHg 85%
    15:00 +3°C° 0 mm 4 mps 740 mmHg 85%
    16:00 +3°C° 0 mm 4 mps 741 mmHg 86%
    17:00 +1°C° 0 mm 4 mps 741 mmHg 87%
    18:00 0°C° 0 mm 4 mps 742 mmHg 87%
    19:00 -1°C° 0 mm 4 mps 742 mmHg 88%
    20:00 -1°C° 0 mm 4 mps 742 mmHg 88%
    21:00 -2°C° 0 mm 4 mps 743 mmHg 88%
    22:00 -2°C° 0 mm 4 mps 743 mmHg 88%
    23:00 -2°C° 0 mm 4 mps 743 mmHg 88%

    26 January, Thursday

    Time Temperature Precipitation Wind Pressure Humidity
    00:00 -2°C° 0 mm 4 mps 743 mmHg 87%
    01:00 -3°C° 0 mm 4 mps 743 mmHg 87%
    02:00 -3°C° 0 mm 4 mps 743 mmHg 87%
    03:00 -2°C° 0 mm 3 mps 744 mmHg 87%
    04:00 -4°C° 0 mm 3 mps 744 mmHg 86%
    05:00 -4°C° 0 mm 3 mps 744 mmHg 86%
    06:00 -4°C° 0 mm 3 mps 744 mmHg 86%
    07:00 -4°C° 0 mm 3 mps 744 mmHg 85%
    08:00 -1°C° 0 mm 3 mps 744 mmHg 82%
    09:00 0°C° 0 mm 3 mps 745 mmHg 80%
    10:00 +2°C° 0 mm 3 mps 745 mmHg 77%
    11:00 +4°C° 0 mm 2 mps 744 mmHg 76%
    12:00 +5°C° 0 mm 2 mps 744 mmHg 75%
    13:00 +6°C° 0 mm 2 mps 744 mmHg 74%
    14:00 +5°C° 0 mm 2 mps 744 mmHg 77%
    15:00 +5°C° 0 mm 2 mps 744 mmHg 80%
    16:00 +4°C° 0 mm 2 mps 744 mmHg 83%
    17:00 +3°C° 0 mm 2 mps 744 mmHg 84%
    18:00 +2°C° 0 mm 2 mps 744 mmHg 85%
    19:00 +1°C° 0 mm 2 mps 744 mmHg 86%
    20:00 -1°C° 0 mm 2 mps 745 mmHg 85%
    21:00 -1°C° 0 mm 2 mps 745 mmHg 85%
    22:00 -1°C° 0 mm 2 mps 745 mmHg 84%
    23:00 -1°C° 0 mm 2 mps 745 mmHg 84%
    Show more